Regional Weather Roundup
Issued by NWS Kansas City/Pleasant Hill, MO

Home | Current Version | Previous Version | Text Only | Print | Product List | Glossary On
Versions: 1 2 3 4 5 6 7 8 9 10 11 12 13 14 15 16 17 18 19 20 21 22 23 24 25 26 27 28
000
ASUS43 KEAX 301610
RWREAX

WEATHER ROUNDUP FOR EASTERN KANSAS AND NORTHWEST MISSOURI
NATIONAL WEATHER SERVICE KANSAS CITY/PLEASANT HILL MO
1100 AM CDT SAT APR 30 2016

KSZ040-057-103>105-MOZ028-029-037-043-301700-
...KANSAS CITY METROPOLITAN AREA...

CITY           SKY/WX    TMP DP  RH WIND       PRES   REMARKS
K.C. INTL      PTSUNNY   63  60  90 SW12      29.65R
K.C. DOWNTOWN  PTSUNNY   68  62  81 S12       29.64S
LEES SUMMIT    MOSUNNY   67  62  84 S20       29.66S
OLATHE - IXD   CLOUDY    63  57  81 SW16      29.68R
OLATHE - OJC   PTSUNNY   64  58  80 W16       29.66R
LAWRENCE       CLOUDY    60  55  83 W14       29.68R

$$

MOZ001>008-011>017-020>025-030>033-038>040-044>046-053-054-301700-
...NORTHERN AND CENTRAL MISSOURI...

CITY           SKY/WX    TMP DP  RH WIND       PRES   REMARKS
ST. JOSEPH     CLOUDY    57  55  93 E8        29.65R
MOSBY          CLOUDY    61  59  94 E3        29.65S
WARRENSBURG    PTSUNNY   66  61  82 S14       29.67S
WHITEMAN AFB   PTSUNNY   67  67 100 SW15      29.66S
CLINTON        MOSUNNY   68  61  77 SW18G24   29.69S
SEDALIA        CLOUDY    67  62  84 S13       29.69F
WARSAW         NOT AVBL
CHILLICOTHE      N/A     56  54  93 E7        29.69S
KIRKSVILLE     LGT RAIN  52  50  93 E12       29.72S FOG

$$

MOZ041-047>049-056>058-063>065-088>090-097-301700-
...EASTERN AND SOUTHERN MISSOURI...

CITY           SKY/WX    TMP DP  RH WIND       PRES   REMARKS
ST. LOUIS INTL LGT RAIN  63  60  90 S3        29.77S
SPIRIT OF STL  CLOUDY    63  62  97 SE8       29.74F
COLUMBIA       CLOUDY    63  61  93 SE12      29.70F
JEFFERSON CITY CLOUDY    64  62  93 SE7       29.69F
ROLLA          CLOUDY    63  61  93 S10       29.72S
OSAGE BEACH    CLOUDY    66  55  68 S8        29.72R
SPRINGFIELD    CLOUDY    68  60  75 SW14      29.72R
BRANSON        CLOUDY    66  61  82 S6        29.77R
JOPLIN         PTSUNNY   65  59  81 SW17G24   29.73S
WEST PLAINS    CLOUDY    64  59  83 S8        29.77R

$$

IAZ060-094-KSZ022-034>040-054-083-096-NEZ052-066-093-301700-
...KANSAS...SOUTHEAST NEBRASKA AND IOWA...

CITY           SKY/WX    TMP DP  RH WIND       PRES   REMARKS
TOPEKA         CLOUDY    56  51  84 SW12      29.69R
MANHATTAN      CLOUDY    54  47  77 W9        29.70R
EMPORIA        CLOUDY    54  49  83 W12       29.73R
CHANUTE        CLOUDY    60  52  74 SW12      29.73R
WICHITA        PTSUNNY   53  45  74 W16       29.77R
OMAHA          LGT RAIN  48  45  89 E9        29.72R FOG
LINCOLN        CLOUDY    48  46  93 NE13      29.71R FOG
FALLS CITY     CLOUDY    54  52  93 SE7       29.65R
LAMONI         CLOUDY    49  48  97 E9        29.70R
DES MOINES     RAIN      48  44  86 E12G25    29.76S FOG

$$





USA.gov is the U.S. government's official web portal to all federal, state and local government web resources and services.